CZ-6A DEB, 61086

Orbit data source: Space-Track

CZ-6A DEB, 61086 is space debris in LEO originally from a launch on Tue, 06 Aug 2024 UTC launched from the Taiyaun Space Center, China (TSC). Debris objects in space refer to the collection of defunct objects orbiting the Earth. Examples of debris include non-operational satellites, rocket bodies, and fragments generated from explosions, collisions, or faulty payload assembly.

Loading next visibility...
Identifier
61086, 2024-140NC
Orbit
LEO
Country
Flag of CNCN / PRC
Related business
Manufacturer
SAST
Mission
Spacecraft
Bus & Motor
Unknown
Mass
Unknown
Launch date (UTC)
2024-08-06 (2 years ago)
Launch vehicle
Unknown
Launch site
Taiyaun Space Center, China (TSC)
Object type
Payload
Rocket body
Debris
Shape & HBR
Unknown shape, 0.2 m
Radar Cross Section
Medium (>0.1 m² and <1 m²)

Expand to show TLE details & history
Last TLE update: 18 hours ago

TLE from 18 hours ago
0 CZ-6A DEB
1 61086U 24140NC  26171.24303333  .00007993  00000-0  64386-3 0  9998
2 61086  89.0313 268.9908 0184457 147.3188 213.9616 14.87333647 98090
Epoch: 2026-06-20T05:49Z
TLE epoch observation values (Epoch: 2026-06-20T05:49:58.079Z)
Latitude
-0.00005°
Longitude
-86.96165°
Altitude
717.027 km
Speed
7.439 km/s
True Right ascension
17h 55m 57s
True Declination
0° 00' 00"
Sunlit
Object was in full shadow at epoch
Visualization orbit readout
Latitude
Unknown
Longitude
Unknown
Altitude
Unknown
Speed
Unknown
Apparent Right ascension
Unknown
Apparent Declination
Unknown
Sunlit
N/A
Visualization observer readout
Local Sidereal Time
10:20:48
Azimuth
Unknown
Elevation
Unknown
Doppler factor
Unknown
Orbital elements
Apogee altitude
731.898 km
Perigee altitude
474.35 km
Semi-major axis
6,981.261 km
Eccentricity
0.01845
Inclination
89.0313°
RAAN
268.9908°
Arg. of periapsis
147.3188°
True anomaly
212.80305°
Mean anomaly
213.9616°
Eccentric anomaly
213.38012°
Mean motion
3.72085 °/min
Orbital period
96.75 mins
BSTAR
0.00064386
Loading maneuver chart data...
Computing Atmospheric mass density...
Loading historical data...
Loading historical data...
Loading historical data...
Loading historical data...
Loading historical data...
Loading historical data...
Loading historical data...

Documentation

Showing up to 5 results
|